DECAYED

STARLINK-30237, 57437 (Decayed)

Orbit data source: Space-Track

STARLINK-30237, 57437 was a payload satellite owned by SpaceX/Seattle (US) in LEO that was launched on Mon, 24 Jul 2023 UTC via an FALCON 9 launch vehicle from the Air Force Eastern Test Range (AFETR). Payload-class satellites include a variety of spacecraft equipped with specific instruments for various scientific and technological missions. These include communications satellites like Starlink; space stations such as the ISS; scientific satellites like the Hubble; Earth observation satellites from companies like Planet Labs, Umbra, and HawkEye 360; GPS; miniature CubeSats for education and research; and military/defense satellites.

Not visible in the next 10 days
Identifier
57437, 2023-105H
Orbit
Decayed
Country
Flag of USUS
Related business
Manufacturer
SpaceX/Seattle
Mission
Decayed Commercial Communications
Bus & Motor
STARLINK V2M, Unknown motor
Mass
730 kg wet, ~700 kg dry
Launch date (UTC)
2023-07-24 (3 years ago)
Launch vehicle
FALCON 9
Launch site
Air Force Eastern Test Range (AFETR)
Object type
Payload
Rocket body
Debris
Shape & HBR
Box + 2 Pan, 17.7 m
Radar Cross Section
33.884 m², Large (>1 m²)

Expand to show TLE details & history
Last TLE update: 1 month ago

TLE from 1 month ago
0 STARLINK-30237
1 57437U 23105H   26135.16505690  .09109663  89848-5  34471-2 0  9993
2 57437  42.9786 185.5351 0010216  78.9800 281.2235 16.23156449156426
Epoch: 2026-05-15T03:57Z
TLE epoch observation values (Epoch: 2026-05-15T03:57:40.916Z)
Latitude
-0.00001°
Longitude
-106.78569°
Altitude
209.456 km
Speed
7.784 km/s
True Right ascension
12h 22m 08s
True Declination
0° 00' 00"
Sunlit
Object was in full shadow at epoch
Visualization orbit readout
Latitude
Unknown
Longitude
Unknown
Altitude
Unknown
Speed
Unknown
Apparent Right ascension
Unknown
Apparent Declination
Unknown
Sunlit
N/A
Visualization observer readout
Local Sidereal Time
21:29:01
Azimuth
Unknown
Elevation
Unknown
Doppler factor
Unknown
Orbital elements
Apogee altitude
219.758 km
Perigee altitude
206.291 km
Semi-major axis
6,591.162 km
Eccentricity
0.00102
Inclination
42.9786°
RAAN
185.5351°
Arg. of periapsis
78.98°
True anomaly
281.10864°
Mean anomaly
281.2235°
Eccentric anomaly
281.16607°
Mean motion
4.05602 °/min
Orbital period
88.76 mins
BSTAR
0.0034471
Loading maneuver chart data...
Computing Atmospheric mass density...
Loading historical data...
Loading historical data...
Loading historical data...
Loading historical data...
Loading historical data...
Loading historical data...
Loading historical data...

Documentation

Showing up to 5 results
|